Location: Newark
(35.2672°N, 80.7344°W)
Time: 13:37:32
(UTC+00:00)

Transit 2A Rocket - Pass Details

Date: 03 February 2020
Orbit: 591 x 912 km, 66.7° (Epoch: 24 February)

Event Time Altitude Azimuth Distance (km) Brightness Sun altitude
Rises 16:32:35 0° 345° (NNW) 3,074 7.6 36.0°
Reaches altitude 10° 16:35:10 10° 358° (N) 2,208 7.0 36.2°
Maximum altitude 16:39:26 27° 56° (NE) 1,441 6.5 36.4°
Drops below altitude 10° 16:44:01 10° 113° (ESE) 2,381 8.2 36.7°
Sets 16:46:54 0° 125° (SE) 3,365 8.9 36.9°
